Regional Weather Roundup
Issued by NWS

Home | Current Version | Previous Version | Text Only | Print | Product List | Glossary Off
Versions: 1 2 3 4 5 6 7 8 9 10 11 12 13 14 15 16 17 18 19 20 21 22 23 24 25 26 27 28 29 30 31 32 33 34 35 36 37 38 39 40 41 42 43 44 45 46 47 48 49 50

000
ASUS43 KLOT 102108
RWRIL

ILLINOIS REGIONAL WEATHER ROUNDUP
NATIONAL WEATHER SERVICE CHICAGO/ROMEOVILLE IL
300 PM CST SUN DEC 10 2017

NOTE: "FAIR" INDICATES FEW OR NO CLOUDS BELOW 12,000 FEET WITH NO
SIGNIFICANT WEATHER AND/OR OBSTRUCTIONS TO VISIBILITY.

* THESE STATIONS ARE NOT UNDER NWS QUALITY CONTROL. THEY ALSO MAY NOT
  REPORT WEATHER SUCH AS PRECIPITATION OR FOG.

ILZ001-002-007-009-015-016-024-102200-
NORTHWEST ILLINOIS

CITY           SKY/WX    TMP DP  RH WIND       PRES   REMARKS
MOLINE         SUNNY     40  24  53 NW10G21   29.98R
STERLING*      CLOUDY    34  22  61 NW16      29.98R WCI  24
SAVANNA*       CLOUDY    33  23  65 NW9       29.99R WCI  26
$$

ILZ003-004-008-010-011-017-018-102200-
NORTH CENTRAL ILLINOIS

CITY           SKY/WX    TMP DP  RH WIND       PRES   REMARKS
ROCKFORD       PTSUNNY   32  20  61 N14       29.97R WCI  22
FREEPORT*      CLOUDY    31  21  65 NW13      29.98R WCI  22
ROCHELLE*      CLOUDY    32  21  64 N14       29.95R WCI  22
DE KALB*       PTSUNNY   31  21  66 NW9       29.94R WCI  23
PERU*          PTSUNNY   34  21  60 NW14      29.97R WCI  25
$$

ILZ005-006-012>014-019>023-102200-
NORTHEAST ILLINOIS

CITY           SKY/WX    TMP DP  RH WIND       PRES   REMARKS
CHICAGO-OHARE  CLOUDY    32  20  61 NW10      29.92R WCI  24
CHICAGO-MIDWAY CLOUDY    33  22  63 NW12      29.93R WCI  24
AURORA         CLOUDY    32  21  64 NW13      29.94R WCI  22
LANSING*       CLOUDY    35  24  64 NW8       29.93R WCI  28
WAUKEGAN       CLOUDY    29  20  69 NW8       29.92R WCI  21
DUPAGE AIRPORT CLOUDY    32  22  66 NW10      29.93R WCI  24
KANKAKEE*      SUNNY     37  21  52 W15G22    29.94R WCI  28
WHEELING       CLOUDY    31  22  69 NW9       29.95R WCI  23
MORRIS*        CLOUDY    35  22  59 NW13G18   29.94R WCI  26
ROMEOVILLE*    CLOUDY    33  23  65 N16       29.94R WCI  23
NORTHERLY ISL    N/A     32  21  64 W8          N/A  WCI  25
$$

LMZ740>746-102200-
SOUTHERN LAKE MICHIGAN

STATION/POSITION SKY/WX   TEMP    WIND        PRES    VSBY  WAVE
                          AIR SEA DIR/SP/G                  HT/PER
                          (F)     (DEG/KT/KT) (MB)    (MI)  (FT/S)
HARRISON CRIB              33     300/ 12/ 13   N/A
BURNHAM HARBOR             33     280/  9/ 14   N/A
CALUMET HARBOR             33     290/  8/ 14 1012.7R
BURNS HARBOR               33     310/ 11/ 16 1013.5R
MICHIGAN CITY              33     280/ 18/ 20   N/A
$$

ILZ025>027-034>036-040-047-049-050-058-095>099-102200-
WEST-CENTRAL ILLINOIS

CITY           SKY/WX    TMP DP  RH WIND       PRES   REMARKS
QUINCY         SUNNY     46  24  42 NW15      30.02R
GALESBURG*     SUNNY     40  27  59 NW13G18   29.99R
MACOMB*        SUNNY     42  25  51 NW16      30.02R
JACKSONVILLE*  SUNNY     43  23  46 W16G25    30.01R
PITTSFIELD*    SUNNY     47  26  43 NW12      30.03R
$$

ILZ028>032-037-038-041>044-048-051>054-059>061-102200-
CENTRAL ILLINOIS

CITY           SKY/WX    TMP DP  RH WIND       PRES   REMARKS
PONTIAC        SUNNY     39  23  53 NW21      29.95R WCI  29
BLOOMINGTON    SUNNY     39  23  52 W20       29.96R WCI  29
DECATUR        SUNNY     43  24  47 W15G25    29.97R
PEORIA         SUNNY     41  24  51 NW9G20    29.98R
LACON*         SUNNY     37  23  57 NW13      29.97R WCI  29
LINCOLN*       SUNNY     42  26  53 NW8G23    29.98R
SPRINGFIELD    SUNNY     44  25  47 W18G24    30.00R
TAYLORVILLE    SUNNY     44  24  45 W13G21    29.98R
$$

ILZ033-039-045-046-055>057-062-063-102200-
EAST-CENTRAL ILLINOIS

CITY           SKY/WX    TMP DP  RH WIND       PRES   REMARKS
CHAMPAIGN      SUNNY     42  23  46 W17       29.95R
DANVILLE*      SUNNY     40  22  50 W13G18    29.91R
RANTOUL*       SUNNY     41  24  51 W17G24    29.95R
MATTOON        SUNNY     42  24  49 W9G21     29.95R
PARIS*         SUNNY     41  24  51 SW16G26   29.96R
$$

ILZ079-100>102-102200-
SOUTHWEST ILLINOIS

CITY           SKY/WX    TMP DP  RH WIND       PRES   REMARKS
ALTON          SUNNY     48  28  46 W12G17    30.00R
BELLEVILLE     SUNNY     52  24  33 W14       29.99R
CAHOKIA*       SUNNY     52  23  32 W13       30.00S
$$

ILZ064>066-069>071-074>076-080>082-084>086-088>090-092>094-102200-
SOUTH-CENTRAL ILLINOIS

CITY           SKY/WX    TMP DP  RH WIND       PRES   REMARKS
CARBONDALE     SUNNY     49  25  39 SW18      30.02R
CAIRO*         SUNNY     49  31  49 SW15G28   30.07S
EFFINGHAM*     SUNNY     44  25  47 SW16G23   30.00R
MARION         SUNNY     50  27  40 SW17      30.04R
CENTRALIA*     SUNNY     49  29  44 W9        29.99S
SALEM*         SUNNY     49  24  37 W15G22    30.00R
METROPOLIS*    SUNNY     49  28  43 SW16G25   30.06F
$$

ILZ067-068-072-073-078-083-087-091-102200-
SOUTHEAST ILLINOIS

CITY           SKY/WX    TMP DP  RH WIND       PRES   REMARKS
LAWRENCEVILLE  SUNNY     45  25  45 SW15      29.99S
FLORA*         SUNNY     47  26  42 SW9       29.99S
FAIRFIELD*     SUNNY     46  25  42 SW9       30.00S
HARRISBURG*    SUNNY     48  28  45 SW15G24   30.03R
ROBINSON*      SUNNY     42  24  50 SW16      29.99S
CARMI*         SUNNY     47  26  44 SW17      30.01F
$$

ABBREVIATIONS USED IN REMARKS
   TC - TEMPERATURE IN CELSIUS
  WCI - WIND CHILL INDEX
   HX - HEAT INDEX
  VSB - VISIBILITY
$$





USA.gov is the U.S. government's official web portal to all federal, state and local government web resources and services.